Content
SEND FEEDBACK

Daily
Averages
Monthly
Summary
United States of America

DONNYBROOK, NORTH DAKOTA


Home > North America > United States > North Dakota
Elevation: 1760 feet     Latitude: 48 31N     Longitude: 101 53W

WEATHER
 
SELECT A DAY
Number of Records: 90,763;   Date Range: 12/7/10 - 12/19/14
 
SHARE

PRINT THIS DATA

[ ← Previous Day ]
WEATHER ALMANAC - JANUARY 23, 2013
[ Next Day → ]
[ °C ]   °F
Weather ElementAverageHighLow
Temperature-1.6 °F5 °F (12:35 am)-4 °F (8:35 am)
Dewpoint-7.5 °F-0.4 °F (12:35 am)-9.4 °F (8:15 am)
Humidity76.2 %85 % (2:55 am)66 % (12:35 pm)
Barometer30.31 in30.40 in (2:35 pm)30.14 in (12:35 am)
Wind Speed10.6 mph17.3 mph (9:55 pm)
Wind Gust21.9 mph (3:55 am)
Weather ElementAverage
Visibility10 mi
Wind DirectionSSW (216.5 °)

Weather ElementTotal
Precipitation---
Heating Degree Days64.5 (Base 65)
Averaged from 71 records on January 23, 2013
WEATHER CONDITIONS BREAKOUT
WIND DIRECTION BREAKOUT
WEATHER BY HOUR - JANUARY 23, 2013
[ °C ]   °F
Local TimeTemperatureDewpointHumidityBarometerVisibilityWind DirectionWind SpeedGust SpeedPrecipitationEventsConditions
12:35 AM5.0 °F-0.4 °F78 %30.14 in10.0 miNW (320°)12.7 mphOvercast
12:55 AM5.0 °F-0.4 °F78 %30.15 in10.0 miNNW (330°)11.5 mphOvercast
1:15 AM5.0 °F-0.4 °F78 %30.14 in10.0 miNNW (330°)12.7 mph18.4 mphOvercast
1:35 AM5.0 °F-0.4 °F78 %30.14 in10.0 miNorth (350°)15.0 mphOvercast
1:55 AM5.0 °F-0.4 °F78 %30.14 in10.0 miNNW (340°)15.0 mphOvercast
2:15 AM5.0 °F-0.4 °F78 %30.15 in10.0 miNNW (340°)13.8 mphOvercast
2:35 AM5.0 °F-0.4 °F78 %30.15 in10.0 miNNW (340°)13.8 mphOvercast
2:55 AM3.2 °F-0.4 °F85 %30.16 in10.0 miNNW (330°)13.8 mph18.4 mphOvercast
3:15 AM3.2 °F-0.4 °F85 %30.17 in10.0 miNW (320°)10.4 mph17.3 mphOvercast
3:35 AM1.4 °F-2.2 °F85 %30.17 in10.0 miNW (320°)11.5 mph16.1 mphOvercast
3:55 AM1.4 °F-2.2 °F85 %30.18 in10.0 miNNW (330°)13.8 mph21.9 mphMostly Cloudy
4:15 AM1.4 °F-2.2 °F85 %30.19 in10.0 miNNW (330°)16.1 mph21.9 mphMostly Cloudy
4:35 AM-0.4 °F-4.0 °F85 %30.20 in10.0 miNNW (330°)15.0 mph21.9 mphOvercast
4:55 AM-0.4 °F-4.0 °F85 %30.20 in10.0 miNNW (340°)12.7 mph19.6 mphOvercast
5:15 AM-0.4 °F-4.0 °F85 %30.22 in10.0 miNNW (340°)12.7 mphOvercast
5:35 AM-0.4 °F-5.8 °F78 %30.23 in10.0 miNNW (340°)10.4 mphOvercast
5:55 AM-0.4 °F-5.8 °F78 %30.24 in10.0 miNNW (330°)10.4 mphMostly Cloudy
6:15 AM-0.4 °F-7.6 °F72 %30.24 in10.0 miNW (320°)9.2 mphScattered Clouds
6:35 AM-2.2 °F-7.6 °F78 %30.25 in10.0 miNNW (340°)11.5 mphPartly Cloudy
6:55 AM-2.2 °F-7.6 °F78 %30.26 in10.0 miNNW (340°)10.4 mphClear
7:15 AM-2.2 °F-7.6 °F78 %30.27 in10.0 miNNW (340°)10.4 mphClear
7:35 AM-2.2 °F-7.6 °F78 %30.28 in10.0 miNNW (340°)9.2 mphClear
7:55 AM-2.2 °F-7.6 °F78 %30.28 in10.0 miNNW (340°)10.4 mphClear
8:15 AM-2.2 °F-9.4 °F71 %30.29 in10.0 miNorth (350°)11.5 mphClear
8:35 AM-4.0 °F-9.4 °F78 %30.29 in10.0 miNorth (350°)12.7 mphClear
8:55 AM-4.0 °F-9.4 °F78 %30.31 in10.0 miNorth (350°)10.4 mphClear
9:15 AM-4.0 °F-9.4 °F78 %30.32 in10.0 miNNW (340°)8.1 mphClear
9:35 AM-4.0 °F-9.4 °F78 %30.34 in10.0 miNNW (340°)9.2 mphClear
9:55 AM-4.0 °F-9.4 °F78 %30.35 in10.0 miNorth (350°)11.5 mphClear
10:15 AM-4.0 °F-9.4 °F78 %30.35 in10.0 miNorth (350°)12.7 mphClear
10:35 AM-4.0 °F-9.4 °F78 %30.36 in10.0 miNorth (360°)10.4 mphClear
10:55 AM-2.2 °F-9.4 °F71 %30.37 in10.0 miNorth (350°)10.4 mphClear
11:15 AM-2.2 °F-9.4 °F71 %30.38 in10.0 miNNW (340°)6.9 mphClear
11:35 AM-2.2 °F-9.4 °F71 %30.38 in10.0 miNorth (350°)8.1 mphClear
11:55 AM-2.2 °F-9.4 °F71 %30.38 in10.0 miNorth (350°)8.1 mphClear
12:15 PM-2.2 °F-9.4 °F71 %30.38 in10.0 miNE (40°)8.1 mphClear
12:35 PM-0.4 °F-9.4 °F66 %30.37 in10.0 miNNE (20°)9.2 mphClear
12:55 PM-2.2 °F-9.4 °F71 %30.38 in10.0 miNE (50°)5.8 mphClear
1:15 PM-2.2 °F-9.4 °F71 %30.37 in10.0 miNE (40°)5.8 mphClear
1:35 PM-2.2 °F-9.4 °F71 %30.38 in10.0 miCalmClear
1:55 PM-2.2 °F-9.4 °F71 %30.38 in10.0 miENE (70°)3.5 mphClear
2:15 PM-2.2 °F-9.4 °F71 %30.39 in10.0 miCalmClear
2:35 PM-2.2 °F-9.4 °F71 %30.40 in10.0 miCalmClear
2:55 PM-2.2 °F-9.4 °F71 %30.40 in10.0 miEast (90°)3.5 mphClear
3:15 PM-2.2 °F-9.4 °F71 %30.40 in10.0 miESE (110°)4.6 mphClear
3:35 PM-2.2 °F-9.4 °F71 %30.40 in10.0 miESE (110°)3.5 mphClear
3:55 PM-2.2 °F-9.4 °F71 %30.40 in10.0 miSSE (150°)3.5 mphClear
4:15 PM-2.2 °F-9.4 °F71 %30.40 in10.0 miSE (130°)3.5 mphClear
4:35 PM-2.2 °F-9.4 °F71 %30.39 in10.0 miEast (80°)4.6 mphClear
4:55 PM-2.2 °F-9.4 °F71 %30.40 in10.0 miEast (100°)5.8 mphClear
5:15 PM-2.2 °F-9.4 °F71 %30.39 in10.0 miEast (100°)9.2 mphPartly Cloudy
5:35 PM-4.0 °F-9.4 °F78 %30.40 in10.0 miEast (90°)8.1 mphMostly Cloudy
5:55 PM-4.0 °F-9.4 °F78 %30.40 in10.0 miEast (100°)8.1 mphOvercast
6:15 PM-4.0 °F-9.4 °F78 %30.37 in10.0 miEast (100°)11.5 mphOvercast
6:35 PM-4.0 °F-9.4 °F78 %30.37 in10.0 miESE (110°)12.7 mphOvercast
6:55 PM-4.0 °F-9.4 °F78 %30.36 in10.0 miEast (100°)12.7 mphOvercast
7:15 PM-4.0 °F-9.4 °F78 %30.36 in10.0 miEast (100°)13.8 mphOvercast
7:35 PM-4.0 °F-9.4 °F78 %30.36 in10.0 miESE (110°)13.8 mphOvercast
7:55 PM-4.0 °F-9.4 °F78 %30.37 in10.0 miESE (120°)13.8 mphOvercast
8:15 PM-4.0 °F-9.4 °F78 %30.38 in10.0 miESE (120°)12.7 mphOvercast
8:35 PM-4.0 °F-9.4 °F78 %30.38 in10.0 miSE (130°)13.8 mphOvercast
8:55 PM-4.0 °F-9.4 °F78 %30.38 in10.0 miSE (130°)15.0 mphOvercast
9:15 PM-4.0 °F-9.4 °F78 %30.37 in10.0 miSE (130°)13.8 mphOvercast
9:35 PM-4.0 °F-9.4 °F78 %30.36 in10.0 miSE (130°)16.1 mphOvercast
9:55 PM-4.0 °F-9.4 °F78 %30.35 in10.0 miSE (130°)17.3 mphOvercast
10:15 PM-4.0 °F-9.4 °F78 %30.35 in10.0 miSE (130°)16.1 mphOvercast
10:35 PM-4.0 °F-9.4 °F78 %30.35 in10.0 miSE (140°)16.1 mphOvercast
10:55 PM-2.2 °F-9.4 °F71 %30.33 in10.0 miSE (140°)17.3 mph21.9 mphOvercast
11:15 PM-2.2 °F-9.4 °F71 %30.33 in10.0 miSE (140°)15.0 mphOvercast
11:35 PM-2.2 °F-9.4 °F71 %30.33 in10.0 miSE (130°)17.3 mphOvercast
11:55 PM-2.2 °F-9.4 °F71 %30.31 in10.0 miSE (140°)16.1 mphOvercast
Hourly data recorded from K08D, located miles away from Donnybrook, North Dakota







STORIES FROM OUR PARTNERS